Weather in Bushtyna

Ukraine / Zakarpattia District     48°03′13″N   23°28′36″E
temp.,
°C
wind,
m/s
gust,
m/s
humid.,
%
clouds,
%
prec.,
mm/h
press.,
hPa
HPBL,
m
17 may, tue
tue1700:00+12ese11765 0.0 101811
03:00+11ese227755 0.0 101812
06:00+11e227892 0.0 101717
09:00+16ne116998 0.1 1017181
12:00+17sw2374100 0.6 1017326
15:00+19w2360100 1.4 1015781
18:00+17nw2381100 1.3 101480
21:00+13ne2796100 5.8 1014352
18 may, wed
wed1800:00+11ne2396100 4.0 101694
03:00+8n239580 4.0 101860
06:00+4nne33910 0.0 102144
09:00+8nne37663 0.0 10241280
12:00+13nne48360 0.0 10252045
15:00+15n36375 0.0 10252199
18:00+15nnw34480 0.0 10251457
21:00+9n11720 0.0 102716
19 may, thu
thu1900:00+6e22720 0.0 102914
03:00+5e22770 0.0 103022
06:00+4e22810 0.0 103120
09:00+10ene11645 0.0 1030296
12:00+15wnw22470 0.0 1029951
15:00+17w32442 0.0 10281139
18:00+17w23505 0.0 1027891
21:00+11s116951 0.0 102710
20 may, fri
fri2000:00+9ese226816 0.0 102713
03:00+8ese227012 0.0 102714
06:00+7ese2276100 0.0 102717
09:00+13ene1166100 0.0 1027220
12:00+18w235438 0.0 1025942
15:00+19wsw3454100 0.0 10241045
18:00+18sw135775 0.0 1022927
21:00+13se22755 0.0 102119
21 may, sat
sat2100:00+12ese22735 0.0 102013
03:00+11ese2275100 0.0 101819
06:00+11ese2275100 0.0 101719
09:00+15n0173100 0.1 1015139
12:00+17sw137182 0.6 1015775
15:00+21w2470100 1.0 1014956
18:00+20nw357994 1.8 1012849
21:00+16wnw2388100 4.8 101341